Temp
6 6 5 5 4 4 4 4 4 4 4 5 5 5 5 4 4 4 4 4 4 4
6 5 5 4 4 3 3 3 3 3 3 4 4 4 4 4 3 3 3 3 3 2
4 4 4 3 3 3 2 2 2 2 2 3 2 2 2 1 2 1 1 1 1 1
2 2 2 2 2 2 1 1 1 1 1 1 1 1 1 1 1 1 0 -0 0 -0
1 1 1 0 0 0 0 -0 0 0 0 0 0 0 -0 0 -1 -1 -2 -1 -1 -1
-1 -1 -1 -1 -1 -1 -1 -1 -1 -1 -1 -1 -1 -1 -1 -1 -2 -3 -2 -1 -1 -2
-3 -3 -3 -2 -2 -2 -2 -2 -2 -2 -1 -1 -2 -2 -2 -2 -3 -2 -2 -2 -2 -2
-4 -3 -3 -3 -3 -3 -3 -3 -2 -2 -2 -2 -2 -2 -3 -4 -5 -3 -3 -2 -2 -2
-5 -4 -4 -4 -4 -4 -4 -3 -3 -3 -3 -3 -4 -4 -5 -5 -4 -4 -4 -3 -3 -3
-5 -5 -5 -5 -4 -4 -4 -4 -4 -4 -4 -5 -5 -5 -4 -4 -4 -5 -5 -4 -4 -4
-6 -6 -6 -5 -5 -5 -5 -5 -5 -6 -6 -6 -5 -5 -4 -4 -4 -5 -5 -5 -5 -4
-7 -6 -6 -6 -6 -6 -6 -6 -6 -6 -6 -6 -6 -5 -5 -4 -4 -4 -5 -5 -5 -4
-8 -7 -7 -7 -7 -6 -6 -6 -6 -6 -6 -6 -6 -6 -5 -5 -5 -5 -5 -5 -5 -5
-8 -8 -8 -7 -7 -7 -7 -7 -7 -7 -7 -6 -6 -6 -6 -5 -5 -5 -5 -5 -5 -5
Height
749 752 756 760 764 769 774 778 782 785 788 792 796 799 802 807 807 808 812 814 815 816
751 754 757 760 764 768 771 776 781 785 787 791 794 797 801 804 807 809 812 814 815 817
752 755 758 761 763 766 770 774 778 783 787 790 793 797 800 806 807 811 812 814 816 818
753 756 759 761 763 766 769 773 777 781 785 789 792 796 800 804 807 810 814 816 817 818
754 757 759 761 763 765 769 772 776 781 785 789 792 795 800 802 807 809 812 815 817 820
757 758 760 762 763 766 769 772 776 781 785 789 793 796 799 802 805 809 810 814 814 819
761 761 763 765 766 767 770 773 777 781 784 788 792 797 800 802 806 808 810 812 813 815
764 764 766 767 770 771 773 776 779 783 787 790 793 796 798 801 805 808 810 811 813 814
768 769 770 770 772 775 776 779 782 786 788 791 793 797 799 802 805 808 810 812 813 815
772 772 773 775 776 779 781 782 784 787 790 792 794 797 799 802 804 807 808 810 812 814
776 775 775 776 778 781 783 784 785 788 791 794 795 796 798 800 802 804 806 808 810 812
782 779 777 778 781 785 786 786 787 791 793 794 795 796 797 799 799 801 803 805 807 809
785 782 780 783 784 787 788 788 788 791 792 792 793 794 796 797 798 800 802 803 805 807
787 786 785 784 786 789 788 788 788 789 790 792 792 793 794 795 796 798 800 802 803 805
Wind_Speed
18 19 19 19 21 23 25 24 23 21 20 20 19 17 15 14 13 13 13 11 9 8
13 14 15 15 16 18 22 24 22 22 21 20 19 18 18 15 14 12 12 11 9 8
12 11 10 11 13 15 17 20 24 23 22 21 20 18 16 15 14 12 10 9 9 8
9 7 7 8 10 12 14 17 23 23 22 21 20 18 17 15 13 11 11 10 7 6
6 5 5 6 9 11 13 15 19 22 21 21 20 18 18 16 12 9 6 6 8 8
4 3 3 5 7 9 11 14 17 20 21 19 19 18 16 14 13 10 12 11 8 8
8 6 5 5 6 8 10 14 17 20 22 21 20 16 14 15 17 15 13 13 13 12
10 8 8 8 8 10 12 15 18 20 19 16 12 14 13 11 10 12 11 9 9 9
13 12 11 11 10 11 13 17 19 15 11 10 11 10 10 12 14 14 12 12 11 9
11 13 13 12 12 11 10 9 7 7 9 10 10 9 10 12 14 12 14 13 14 12
9 9 8 7 6 5 5 6 7 8 8 10 10 9 9 11 15 15 14 16 14 13
7 7 7 6 5 3 4 4 5 7 8 8 8 8 9 10 11 17 13 13 14 14
6 5 6 4 3 4 5 6 6 7 9 9 10 9 9 7 9 12 13 11 12 11
5 4 2 2 2 3 3 5 5 6 6 7 9 8 8 10 10 12 12 12 12 12
Wind_Direction
194 193 196 200 203 206 208 207 202 201 201 199 198 200 200 205 202 202 198 199 195 186
190 191 190 194 200 206 210 209 202 201 199 199 198 197 196 197 196 190 190 192 190 189
169 183 193 197 202 205 206 203 196 195 196 193 190 190 187 185 177 182 170 178 184 180
148 159 178 195 203 208 205 202 199 196 192 189 185 181 176 170 170 168 170 176 181 178
125 144 173 194 197 200 201 200 201 196 190 185 180 175 172 163 165 170 198 209 197 190
100 128 155 178 183 188 193 190 192 190 184 178 174 168 167 180 208 208 197 194 193 210
84 99 119 142 159 170 179 180 180 181 178 173 170 175 197 218 198 211 214 211 205 207
85 100 114 125 140 153 166 173 176 172 171 173 191 227 211 194 191 198 190 193 200 203
89 101 111 123 131 145 152 159 160 156 172 201 199 193 180 182 196 212 213 209 204 205
82 93 100 108 117 122 133 147 174 222 205 191 190 184 194 212 221 205 213 216 221 226
66 79 84 88 98 121 150 165 169 176 188 203 211 216 233 217 204 213 213 215 224 229
70 87 90 98 111 136 154 164 182 203 209 215 221 218 239 249 245 219 220 225 216 212
40 71 97 114 143 179 192 195 200 216 225 232 240 237 240 227 215 202 209 202 205 211
22 50 55 115 179 214 214 206 205 216 236 232 224 231 224 217 206 198 191 204 206 212